TimeEST,TemperatureF,Dew PointF,Humidity,Sea Level PressureIn,VisibilityMPH,Wind Direction,Wind SpeedMPH,Gust SpeedMPH,PrecipitationIn,Events,Conditions,WindDirDegrees,DateUTC
12:15 AM,53.6,53.6,100,29.98,3.0,Calm,Calm,-,0.01,Rain,Light Rain,0,2013-01-17 05:15:00
12:35 AM,53.6,53.6,100,29.98,2.5,Calm,Calm,-,0.04,Rain,Light Rain,0,2013-01-17 05:35:00
12:55 AM,53.6,53.6,100,29.98,2.0,Calm,Calm,-,0.05,Rain,Light Rain,0,2013-01-17 05:55:00
1:15 AM,53.6,53.6,100,29.97,4.0,Calm,Calm,-,N/A,Rain,Light Rain,0,2013-01-17 06:15:00
1:35 AM,53.6,53.6,100,29.97,2.0,Calm,Calm,-,0.03,Rain,Light Rain,0,2013-01-17 06:35:00
1:55 AM,53.6,53.6,100,29.97,2.5,Calm,Calm,-,0.04,Rain,Light Rain,0,2013-01-17 06:55:00
2:15 AM,53.6,53.6,100,29.96,2.5,Calm,Calm,-,N/A,Rain,Light Rain,0,2013-01-17 07:15:00
2:35 AM,53.6,53.6,100,29.97,4.0,Calm,Calm,-,0.01,Rain,Light Rain,0,2013-01-17 07:35:00
2:55 AM,53.6,53.6,100,29.96,2.0,Calm,Calm,-,0.02,Rain,Light Rain,0,2013-01-17 07:55:00
3:15 AM,53.6,53.6,100,29.95,4.0,Calm,Calm,-,N/A,Rain,Light Rain,0,2013-01-17 08:15:00
3:35 AM,53.6,53.6,100,29.95,9.0,Calm,Calm,-,0.01,,Overcast,0,2013-01-17 08:35:00
3:55 AM,53.6,53.6,100,29.95,2.5,Calm,Calm,-,0.01,Rain,Light Rain,0,2013-01-17 08:55:00
4:15 AM,53.6,53.6,100,29.94,10.0,Calm,Calm,-,N/A,,Overcast,0,2013-01-17 09:15:00
4:35 AM,53.6,53.6,100,29.93,3.0,Calm,Calm,-,0.02,Rain,Light Rain,0,2013-01-17 09:35:00
4:55 AM,55.4,55.4,100,29.94,10.0,Calm,Calm,-,0.03,,Overcast,0,2013-01-17 09:55:00
5:15 AM,53.6,53.6,100,29.94,7.0,Calm,Calm,-,N/A,,Overcast,0,2013-01-17 10:15:00
5:35 AM,53.6,53.6,100,29.94,3.0,Calm,Calm,-,N/A,Rain,Light Rain,0,2013-01-17 10:35:00
5:55 AM,53.6,53.6,100,29.93,3.0,Calm,Calm,-,0.01,,Overcast,0,2013-01-17 10:55:00
6:15 AM,53.6,53.6,100,29.93,10.0,Calm,Calm,-,N/A,,Overcast,0,2013-01-17 11:15:00
6:35 AM,53.6,53.6,100,29.94,2.0,Calm,Calm,-,0.01,Rain,Light Rain,0,2013-01-17 11:35:00
6:55 AM,53.6,53.6,100,29.93,1.8,Calm,Calm,-,0.03,Rain,Light Rain,0,2013-01-17 11:55:00
7:15 AM,53.6,53.6,100,29.94,8.0,Calm,Calm,-,N/A,,Overcast,0,2013-01-17 12:15:00
7:35 AM,53.6,53.6,100,29.94,7.0,Calm,Calm,-,N/A,,Overcast,0,2013-01-17 12:35:00
7:55 AM,53.6,53.6,100,29.94,3.0,NE,3.5,-,N/A,,Overcast,40,2013-01-17 12:55:00
8:15 AM,53.6,53.6,100,29.94,1.2,NNE,5.8,-,N/A,,Overcast,30,2013-01-17 13:15:00
8:35 AM,53.6,53.6,100,29.95,0.8,Calm,Calm,-,N/A,,Overcast,0,2013-01-17 13:35:00
8:55 AM,53.6,53.6,100,29.95,0.5,NE,4.6,-,N/A,Fog,Fog,50,2013-01-17 13:55:00
9:15 AM,53.6,53.6,100,29.94,0.5,NE,4.6,-,0.01,Rain,Light Rain,40,2013-01-17 14:15:00
9:35 AM,53.6,53.6,100,29.95,1.2,Calm,Calm,-,0.07,Rain,Rain,0,2013-01-17 14:35:00
10:15 AM,53.6,53.6,100,29.95,3.0,NE,3.5,-,0.01,Rain,Light Rain,50,2013-01-17 15:15:00
10:55 AM,53.6,53.6,100,29.93,5.0,ENE,6.9,-,0.03,Rain,Light Rain,60,2013-01-17 15:55:00
11:15 AM,53.6,53.6,100,29.92,1.5,ENE,6.9,-,0.10,Rain,Rain,60,2013-01-17 16:15:00
11:35 AM,51.8,51.8,100,29.91,7.0,NE,5.8,-,0.11,Rain,Light Rain,50,2013-01-17 16:35:00
11:55 AM,51.8,51.8,100,29.90,10.0,NE,6.9,16.1,0.11,,Overcast,50,2013-01-17 16:55:00
12:15 PM,51.8,51.8,100,29.88,10.0,East,5.8,-,0.01,,Overcast,80,2013-01-17 17:15:00
12:35 PM,50.0,50.0,100,29.86,10.0,ENE,10.4,18.4,0.01,,Overcast,60,2013-01-17 17:35:00
12:55 PM,50.0,50.0,100,29.86,5.0,NE,8.1,-,0.01,Rain,Light Rain,40,2013-01-17 17:55:00
1:15 PM,50.0,50.0,100,29.83,8.0,NE,4.6,-,N/A,,Overcast,50,2013-01-17 18:15:00
1:35 PM,50.0,50.0,100,29.80,8.0,ENE,6.9,-,N/A,,Overcast,70,2013-01-17 18:35:00
1:55 PM,50.0,50.0,100,29.79,9.0,NE,5.8,-,N/A,,Overcast,50,2013-01-17 18:55:00
2:15 PM,50.0,50.0,100,29.77,6.0,ENE,8.1,16.1,N/A,,Overcast,60,2013-01-17 19:15:00
2:35 PM,50.0,50.0,100,29.77,5.0,NE,5.8,-,N/A,,Overcast,50,2013-01-17 19:35:00
2:55 PM,50.0,50.0,100,29.76,5.0,ENE,6.9,-,N/A,,Overcast,60,2013-01-17 19:55:00
3:15 PM,50.0,50.0,100,29.74,4.0,ENE,12.7,21.9,N/A,,Overcast,60,2013-01-17 20:15:00
3:35 PM,50.0,50.0,100,29.73,4.0,NE,10.4,21.9,N/A,,Overcast,50,2013-01-17 20:35:00
3:55 PM,50.0,50.0,100,29.72,3.0,NE,15.0,20.7,0.03,Rain,Light Rain,40,2013-01-17 20:55:00
4:15 PM,50.0,50.0,100,29.80,0.8,West,18.4,25.3,0.29,Rain,Heavy Rain,280,2013-01-17 21:15:00
4:35 PM,48.2,48.2,100,29.82,2.5,NW,8.1,17.3,0.42,Rain,Light Rain,310,2013-01-17 21:35:00
4:55 PM,46.4,46.4,100,29.84,2.0,NNW,16.1,21.9,0.54,Rain,Rain,340,2013-01-17 21:55:00
5:15 PM,44.6,44.6,100,29.84,2.5,North,20.7,26.5,0.04,Rain,Light Rain,360,2013-01-17 22:15:00
5:35 PM,44.6,44.6,100,29.82,4.0,NNE,18.4,26.5,0.08,Rain,Light Rain,20,2013-01-17 22:35:00
5:55 PM,44.6,44.6,100,29.83,3.0,NNE,16.1,21.9,0.13,Rain,Light Rain,20,2013-01-17 22:55:00
6:15 PM,42.8,42.8,100,29.80,5.0,NNE,12.7,-,0.05,Rain,Light Rain,20,2013-01-17 23:15:00
6:35 PM,42.8,42.8,100,29.84,10.0,North,9.2,17.3,0.05,Rain,Light Rain,360,2013-01-17 23:35:00
6:55 PM,42.8,42.8,100,29.89,10.0,WSW,3.5,-,0.06,Rain,Light Rain,240,2013-01-17 23:55:00
7:15 PM,42.8,42.8,100,29.89,4.0,North,3.5,-,0.01,Rain,Light Rain,10,2013-01-18 00:15:00
8:15 PM,42.8,42.8,100,29.96,7.0,NNE,10.4,20.7,N/A,Rain,Light Rain,20,2013-01-18 01:15:00
8:35 PM,41.0,41.0,100,29.98,3.0,North,11.5,19.6,0.02,Rain,Light Rain,360,2013-01-18 01:35:00
8:55 PM,41.0,41.0,100,30.01,7.0,North,11.5,17.3,0.04,Rain,Light Rain,10,2013-01-18 01:55:00
9:15 PM,41.0,41.0,100,30.04,7.0,North,15.0,24.2,0.01,Rain,Light Rain,10,2013-01-18 02:15:00
9:35 PM,41.0,41.0,100,30.08,5.0,North,13.8,21.9,0.03,Rain,Light Rain,360,2013-01-18 02:35:00
9:55 PM,39.2,39.2,100,30.11,5.0,North,12.7,20.7,0.06,Rain,Light Rain,360,2013-01-18 02:55:00
10:15 PM,39.2,39.2,100,30.15,7.0,North,11.5,17.3,0.02,Rain,Light Rain,360,2013-01-18 03:15:00
10:35 PM,37.4,37.4,100,30.16,5.0,North,17.3,23.0,0.04,Rain,Light Rain,360,2013-01-18 03:35:00
10:55 PM,35.6,35.6,100,30.18,6.0,North,13.8,-,0.06,Rain,Light Rain,360,2013-01-18 03:55:00